Weather History for Douglas, WY

Change the Weather History Date:

Monday, September 24, 2012

  Actual Average Record
Temperature  
Mean Temperature 66 °F 54 °F  
Max Temperature 82 °F 71 °F 88 °F (1992)
Min Temperature 50 °F 38 °F 21 °F (2000)
Degree Days  
Heating Degree Days 0 11  
Month to date heating degree days 84 154  
Since 1 July heating degree days 91 195  
Cooling Degree Days 1 0  
Month to date cooling degree days 34 27  
Year to date cooling degree days 831 485  
Growing Degree Days 16 (Base 50)    
Moisture  
Dew Point 34 °F    
Average Humidity 36    
Maximum Humidity 55    
Minimum Humidity 17    
Precipitation  
Precipitation 0.00 in 0.04 in 0.23 in (2005)
Month to date precipitation 0.24 0.99  
Year to date precipitation 4.15 11.04  
Sea Level Pressure  
Sea Level Pressure 29.90 in    
Wind  
Wind Speed 6 mph (NW)    
Max Wind Speed 18 mph    
Max Gust Speed 24 mph    
Visibility 10 miles    
Events      
T = Trace of Precipitation, MM = Missing Value Source: NWS Daily Summary

Daily Weather History Graph

Daily Weather History Graph

Search for Another Location

Airport:

Trip Planner

Search our weather history database for the weather conditions in past years. The results will help you decide how hot, cold, wet, or windy it might be!

Date:

Astronomy

Sep. 24, 2012 Rise Set
Actual Time 6:51 AM MDT 6:54 PM MDT
Civil Twilight 6:23 AM MDT 7:22 PM MDT
Nautical Twilight 5:50 AM MDT 7:55 PM MDT
Astronomical Twilight 5:16 AM MDT 8:28 PM MDT
Moon 3:48 PM MDT (9/24) 1:03 AM MDT (9/24)
Length of Visible Light 12h 59m
Length of Day
12h 02m
Waxing Gibbous, 71% of the Moon is Illuminated
Sep 24
Waxing Gibbous
Sep 29
Full
Oct 8
Last Quarter
Oct 15
New
Oct 21
First Quarter

Hourly Weather History & Observations

Time (MDT) Temp. Dew Point Humidity Pressure Visibility Wind Dir Wind Speed Gust Speed Precip Events Conditions
12:53 AM 54.0 °F 35.1 °F 49% 29.96 in 10.0 mi NW 5.8 mph - N/A   Clear
1:53 AM 52.0 °F 30.0 °F 43% 29.97 in 10.0 mi NW 4.6 mph - N/A   Clear
2:53 AM 52.0 °F 30.9 °F 45% 29.96 in 10.0 mi Calm Calm - N/A   Clear
3:53 AM 52.0 °F 30.9 °F 45% 29.94 in 10.0 mi Calm Calm - N/A   Clear
4:53 AM 52.0 °F 28.9 °F 41% 29.94 in 10.0 mi Calm Calm - N/A   Overcast
5:53 AM 51.1 °F 30.9 °F 46% 29.95 in 10.0 mi Calm Calm - N/A   Overcast
6:53 AM 50.0 °F 30.9 °F 48% 29.98 in 10.0 mi Calm Calm - N/A   Overcast
7:53 AM 52.0 °F 32.0 °F 47% 29.99 in 10.0 mi NNW 3.5 mph - N/A   Overcast
8:53 AM 57.0 °F 33.1 °F 40% 29.98 in 10.0 mi Calm Calm - N/A   Mostly Cloudy
9:53 AM 64.9 °F 34.0 °F 32% 29.94 in 10.0 mi Variable 4.6 mph - N/A   Clear
10:53 AM 75.0 °F 39.9 °F 28% 29.90 in 10.0 mi NW 12.7 mph - N/A   Clear
11:53 AM 77.0 °F 39.0 °F 25% 29.88 in 10.0 mi WNW 15.0 mph - N/A   Clear
12:53 PM 79.0 °F 36.0 °F 21% 29.86 in 10.0 mi WNW 13.8 mph - N/A   Clear
1:53 PM 82.0 °F 35.1 °F 18% 29.83 in 10.0 mi WNW 13.8 mph 19.6 mph N/A   Partly Cloudy
2:53 PM 79.0 °F 33.1 °F 19% 29.81 in 10.0 mi NW 6.9 mph - N/A   Clear
3:53 PM 79.0 °F 30.9 °F 17% 29.81 in 10.0 mi NNE 9.2 mph - N/A   Scattered Clouds
4:53 PM 78.1 °F 30.9 °F 18% 29.81 in 10.0 mi NNE 11.5 mph 19.6 mph N/A   Mostly Cloudy
5:53 PM 73.9 °F 30.9 °F 21% 29.83 in 10.0 mi ENE 11.5 mph - N/A   Clear
6:53 PM 68.0 °F 30.0 °F 24% 29.86 in 10.0 mi ENE 8.1 mph - N/A   Clear
7:53 PM 63.0 °F 32.0 °F 31% 29.90 in 10.0 mi SSW 3.5 mph - N/A   Scattered Clouds
8:53 PM 63.0 °F 42.1 °F 46% 29.90 in 10.0 mi West 5.8 mph - N/A   Clear
9:53 PM 59.0 °F 41.0 °F 51% 29.90 in 10.0 mi North 5.8 mph - N/A   Clear
10:53 PM 55.9 °F 39.9 °F 55% 29.86 in 10.0 mi Calm Calm - N/A   Clear
11:53 PM 55.9 °F 39.0 °F 53% 29.85 in 10.0 mi Calm Calm - N/A   Clear